sat.trackr.live / text

‹ back to catalog

STARLINK-3193

NORAD 49754 · 2021-115AG

PAYLOAD ACTIVE UNKNOWN

§ Identity

Operator
Country
US
Launch date
2021-12-02
Launch site
AFETR
Launch vehicle
Mass (kg)
RCS (m²)

Purposes: comms

External: N2YO · Heavens-Above · Gunter

§ Orbital elements

Epoch: 2026-05-25T01:18:32.808096Z

Period
95.44 min
Inclination
53.2135°
Eccentricity
0.0001038
Mean motion
15.08843161 rev/d
Perigee alt
539.0 km
Apogee alt
540.5 km
Semi-major
6,917.9 km
B*
7.9888e-5
RAAN
156.4119°
Arg perigee
80.6162°
Mean anomaly
279.4947°
Rev number
24,720

§ Raw data

STARLINK-31931 49754U 21115AG  26145.05454639  .00000984  00000+0  79888-4 0  99972 49754  53.2135 156.4119 0001038  80.6162 279.4947 15.08843161247206

JSON: /api/v1/satellites/49754 · /tle

For live sub-satellite position, see the globe view (requires WebGL).

§ Visibility from observer

Set your observer location to see the next 7 days of passes ≥ 10°. The values pass through the URL so the page stays shareable.

No JS? Fill the form by hand. The geolocation button needs JavaScript.